Tracking 31027 objects as of 19-Jul-2025
HD Live streaming from Space Station
objects crossing your sky now

STARLINK-1700

Track STARLINK-1700 now!
10-day predictions
STARLINK-1700 is classified as:


NORAD ID: 46549
Int'l Code: 2020-070T
Perigee: 474.7 km
Apogee: 479.0 km
Inclination: 53.1 °
Period: 94.0 minutes
Semi major axis: 6847 km
RCS: Unknown
Launch date: October 6, 2020
Source: United States (US)
Launch site: AIR FORCE EASTERN TEST RANGE (AFETR)
Your satellite tracking list
HAWK-4A
Track 1 satellite(s)




NASA's NSSDC Master Catalog

Two Line Element Set (TLE):
1 46549U 20070T   25199.21836858  .00063443  00000-0  20165-2 0  9990
2 46549  53.0500 129.8379 0003161  68.2154 291.9182 15.32048545264437
Source of the keplerian elements: AFSPC